Regional Weather Roundup
Issued by NWS Sioux Falls, SD

Home | Current Version | Previous Version | Text Only | Print | Product List | Glossary Off
Versions: 1 2 3 4 5 6 7 8 9 10 11 12 13 14 15 16 17 18 19 20 21 22 23 24 25 26 27 28 29 30 31 32 33 34 35 36 37 38 39 40 41 42 43 44 45 46 47 48 49 50

000
ASUS43 KFSD 242310
RWRFSD

WEATHER ROUNDUP FOR SE SOUTH DAKOTA/SW MINNESOTA/NW IOWA
NATIONAL WEATHER SERVICE SIOUX FALLS SD
500 PM CST MON NOV 24 2014

NOTE: "FAIR" INDICATES FEW OR NO CLOUDS BELOW 12,000 FEET WITH NO
SIGNIFICANT WEATHER AND OR OBSTRUCTIONS TO VISIBILITY.


SDZ038>040-050-052>070-250000-
SOUTHEAST SOUTH DAKOTA

CITY           SKY/WX    TMP DP  RH WIND       PRES   REMARKS
CHAMBERLAIN    CLEAR     27   6  41 NW17G26   29.98R WCI  14
HURON          CLEAR     23  10  57 NW20      29.97R WCI   8
MADISON        FAIR      21  14  73 NW24G30   29.87R WCI   4
MITCHELL       CLEAR     26   7  44 NW17      29.97R WCI  13
SIOUX FALLS    PTCLDY    24  14  65 NW20G31   29.88R WCI  10
WINNER         FAIR      29  10  45 NW14      29.99R WCI  18
YANKTON        CLEAR     28  12  50 NW20G30   29.93R WCI  15
$$

MNZ071-072-080-081-089-090-097-098-250000-
SOUTHWEST MINNESOTA

CITY           SKY/WX    TMP DP  RH WIND       PRES   REMARKS
FAIRMONT       CLOUDY    18  10  73 W22G39    29.74R WCI   0
JACKSON        CLOUDY    21  12  68 NW28G38   29.76R WCI   3
LUVERNE        PTCLDY    23  16  74 NW20G32   29.84R WCI   8
MARSHALL       CLOUDY    19  10  68 NW28G33   29.82R WCI   1
MONTEVIDEO     CLEAR     16  12  86 N16       29.83R WCI   0
PIPESTONE      PTCLDY    21  16  79 NW23G32   29.81R WCI   5
REDWOOD FALLS  FLURRIES  16   9  74 NW20G35   29.79R WCI  -1
TRACY          CLOUDY    20  14  77 NW23G31   29.80R WCI   3
WINDOM         CLOUDY    18  12  79 NW25G37   29.77R WCI  -1
WORTHINGTON    CLOUDY    19  12  73 NW25G31   29.79R WCI   2
$$

IAZ001>003-012>014-020>022-031-032-NEZ013-014-SDZ071-250000-
NORTHWEST IOWA

CITY           SKY/WX    TMP DP  RH WIND       PRES   REMARKS
CHEROKEE       CLOUDY    24  15  70 NW15G26   29.84R WCI  11
DENISON        MOCLDY    27  16  63 NW18G31   29.82R WCI  13
ESTHERVILLE    CLOUDY    19  11  70 NW23G38   29.76R WCI   2
LE MARS        CLOUDY    27  16  63 NW22G33   29.88R WCI  12
ORANGE CITY    CLOUDY    25  14  63 NW22G31   29.84R WCI  10
SHELDON        CLOUDY    21  14  73 NW29G40   29.82R WCI   3
SIOUX CITY     CLEAR     29  15  56 NW26      29.87R WCI  14
SPENCER        CLOUDY    22  12  65 NW23G36   29.79R WCI   6
STORM LAKE     CLOUDY    23  14  68 NW29      29.80R WCI   6
$$

ABBREVIATIONS USED IN REMARKS
   TC - TEMPERATURE IN CELSIUS
  WCI - WIND CHILL INDEX
   HX - HEAT INDEX
  VSB - VISIBILITY



USA.gov is the U.S. government's official web portal to all federal, state and local government web resources and services.